Temp
11 12 12 13 13 13 13 13 14 14 13 13 13 13 13 13 13 14 14 14 14 14 14 14 14 15 15 15 15 14 11 11 12 9 12 10 10 11 11 11 10 11 11 11 11
11 12 12 12 12 13 13 13 13 14 13 14 13 13 13 13 14 14 14 14 14 14 14 14 14 15 15 14 14 12 10 12 10 9 11 10 10 11 10 9 10 11 11 11 11
11 11 12 12 12 12 12 12 13 13 13 14 14 14 14 14 14 13 14 14 14 14 14 14 15 15 14 13 12 10 11 10 10 10 10 10 10 10 9 8 11 12 12 11 11
11 11 12 12 11 12 13 12 12 13 13 13 13 14 14 14 14 13 14 14 14 14 14 14 14 14 11 11 11 12 9 10 10 10 10 9 9 9 9 11 12 12 11 11 11
11 11 11 11 12 12 12 12 12 13 12 12 13 13 13 13 13 13 14 14 14 14 14 14 14 13 10 10 10 10 9 9 9 10 9 9 9 8 9 12 11 11 11 11 11
11 11 11 11 11 11 12 12 12 12 12 12 13 13 12 12 13 13 13 14 14 14 14 14 14 14 11 10 10 9 9 9 9 9 9 8 8 8 11 11 11 11 11 11 11
11 11 11 11 11 11 12 12 12 12 12 12 12 12 12 13 12 13 13 13 13 14 13 14 13 13 11 9 10 10 10 9 9 9 9 8 8 6 12 10 11 11 12 11 11
10 11 11 11 11 11 11 11 11 12 12 12 12 12 13 12 12 12 12 13 13 13 13 13 13 13 11 10 9 9 8 11 9 8 8 9 12 10 11 10 11 11 11 11 11
10 10 11 11 11 11 11 11 11 11 12 11 12 12 12 11 12 12 12 12 13 13 12 13 13 11 10 8 9 7 12 10 10 6 7 8 9 9 10 9 10 11 11 11 11
10 10 10 10 11 11 11 11 11 11 11 11 11 11 11 12 12 12 12 12 12 12 12 12 12 7 5 7 11 12 11 10 9 7 7 6 7 7 9 8 9 10 11 11 11
9 9 10 10 10 11 11 11 11 11 10 12 11 11 11 11 11 11 12 12 12 12 10 10 9 10 10 8 8 9 9 9 8 6 5 5 4 7 7 6 5 7 9 11 11
8 8 8 10 10 10 10 11 11 10 10 11 11 11 11 11 10 11 12 12 11 10 8 9 10 7 6 7 8 8 9 8 7 6 5 5 6 5 6 7 7 8 10 11 11
8 8 8 8 9 10 10 10 10 11 9 10 9 10 11 11 11 10 11 11 9 9 9 10 7 6 7 7 8 8 9 8 7 5 4 3 9 9 9 8 8 10 11 11 11
8 7 7 8 8 9 10 10 10 11 3 8 8 9 10 10 10 10 10 11 7 8 7 7 5 7 7 8 7 10 6 6 6 6 9 4 11 10 8 8 9 10 10 10 10
8 7 7 7 8 9 9 10 10 10 5 9 6 7 8 9 8 8 9 10 7 6 7 7 6 7 8 8 6 8 5 5 5 5 5 6 6 9 8 12 11 9 10 10 10
7 7 7 7 8 8 9 9 10 4 5 6 6 6 7 8 8 7 8 9 8 6 4 4 4 5 6 4 5 4 5 4 3 4 5 6 7 10 10 12 11 9 10 10 10
7 7 7 7 8 8 8 9 5 3 5 5 5 6 7 6 7 7 6 6 6 6 4 5 5 4 4 6 5 5 6 5 8 6 8 5 5 10 10 9 8 8 10 10 10
6 7 6 6 7 8 8 5 3 2 4 6 5 6 8 7 7 7 6 7 6 6 1 7 8 4 4 5 7 6 7 6 9 8 7 5 8 12 7 8 9 9 10 10 10
7 6 7 5 5 7 7 4 4 4 6 6 7 6 7 7 7 7 6 5 6 4 9 5 6 3 3 3 4 6 5 5 1 -4 3 7 8 9 8 8 8 9 10 10 10
5 6 6 5 4 6 3 5 3 6 6 7 9 7 6 6 8 6 6 7 8 4 6 7 6 2 3 3 4 5 4 6 2 8 8 6 7 10 13 12 11 10 10 11 10
4 5 5 6 3 4 3 3 4 7 8 7 6 6 8 7 7 7 8 8 6 4 6 3 5 2 3 2 4 3 2 4 4 4 5 4 10 6 9 10 11 9 11 12 11
4 4 4 5 2 0 3 3 6 7 7 7 7 8 8 7 7 7 8 7 6 5 7 5 4 2 3 1 1 2 6 5 6 4 -1 2 7 8 6 6 7 9 12 11 11
3 2 3 3 3 2 2 4 6 7 6 7 7 8 8 7 9 7 7 4 5 6 6 5 5 4 5 3 1 2 3 4 3 2 1 5 8 6 5 6 9 9 12 12 11
2 1 1 0 1 3 4 4 5 7 7 8 8 8 8 6 6 6 5 4 4 5 6 7 1 7 10 9 3 1 1 3 3 1 3 3 7 8 4 3 8 11 12 11 11
1 1 1 2 1 2 4 5 4 5 7 7 7 8 8 5 4 5 4 4 4 5 5 5 6 -1 -2 1 6 4 1 2 2 5 7 7 4 8 4 4 9 10 11 11 12
0 -0 -1 -0 1 1 2 4 5 5 5 7 6 7 7 7 8 5 4 4 7 3 5 3 3 -0 1 -3 -0 3 1 1 1 -1 1 0 4 7 9 9 8 11 11 11 10
-0 0 0 1 1 2 3 3 4 6 7 9 9 8 7 9 10 8 7 6 6 4 4 4 1 4 3 -4 0 4 5 2 2 2 5 5 9 8 7 7 8 11 10 9 9
Height
1523 1523 1521 1521 1520 1520 1520 1520 1519 1519 1518 1517 1517 1516 1517 1517 1517 1517 1517 1518 1518 1518 1519 1519 1520 1521 1521 1521 1524 1525 1535 1540 1534 1539 1529 1529 1531 1531 1530 1530 1531 1530 1528 1528 1528
1523 1521 1520 1519 1520 1519 1520 1520 1519 1519 1518 1517 1517 1517 1516 1516 1517 1517 1517 1517 1517 1518 1518 1520 1520 1521 1522 1523 1524 1526 1536 1531 1530 1530 1531 1529 1529 1529 1529 1529 1527 1525 1525 1526 1526
1522 1521 1519 1520 1519 1517 1518 1519 1518 1518 1517 1517 1516 1516 1516 1516 1517 1516 1516 1516 1517 1518 1520 1519 1521 1521 1521 1524 1526 1527 1531 1529 1529 1529 1530 1530 1529 1528 1527 1526 1521 1521 1522 1523 1523
1521 1520 1519 1518 1519 1517 1516 1518 1517 1516 1517 1516 1516 1514 1514 1515 1520 1515 1515 1515 1516 1517 1519 1519 1521 1521 1521 1524 1525 1528 1529 1528 1529 1529 1529 1528 1527 1527 1524 1519 1520 1521 1521 1521 1520
1520 1519 1518 1518 1519 1517 1515 1516 1517 1515 1515 1515 1515 1514 1514 1514 1515 1515 1514 1514 1516 1516 1518 1519 1521 1522 1520 1523 1525 1526 1528 1528 1528 1528 1527 1526 1524 1524 1516 1516 1517 1518 1518 1518 1518
1519 1519 1517 1517 1518 1516 1514 1514 1515 1514 1513 1514 1513 1514 1516 1516 1514 1513 1514 1513 1516 1516 1518 1518 1518 1522 1520 1522 1525 1525 1525 1526 1526 1525 1525 1524 1520 1519 1510 1510 1511 1514 1514 1515 1516
1516 1517 1515 1515 1516 1516 1513 1511 1513 1514 1511 1513 1513 1513 1514 1516 1513 1513 1514 1513 1515 1515 1517 1517 1519 1525 1522 1522 1527 1525 1527 1525 1525 1524 1523 1523 1517 1514 1507 1510 1511 1511 1512 1512 1513
1513 1513 1513 1515 1514 1515 1512 1510 1513 1512 1511 1511 1511 1513 1512 1512 1513 1513 1514 1514 1514 1516 1519 1517 1520 1522 1524 1523 1528 1529 1529 1528 1524 1524 1523 1523 1512 1506 1505 1508 1508 1509 1509 1510 1510
1510 1510 1510 1512 1513 1513 1512 1509 1510 1512 1510 1511 1511 1511 1511 1511 1512 1513 1514 1516 1515 1516 1520 1518 1521 1524 1528 1526 1533 1534 1529 1529 1525 1526 1525 1524 1513 1504 1504 1505 1505 1505 1506 1507 1506
1506 1508 1508 1509 1511 1511 1512 1509 1508 1510 1511 1510 1510 1512 1510 1509 1509 1510 1513 1512 1518 1516 1520 1519 1520 1527 1531 1532 1538 1528 1529 1530 1531 1527 1525 1523 1512 1503 1501 1501 1498 1499 1501 1502 1502
1503 1503 1506 1506 1507 1509 1510 1509 1512 1511 1509 1506 1508 1506 1506 1507 1509 1510 1511 1512 1517 1519 1520 1521 1525 1527 1527 1530 1532 1533 1531 1532 1527 1529 1529 1521 1515 1496 1494 1493 1492 1492 1495 1497 1499
1500 1501 1502 1503 1504 1507 1506 1507 1508 1509 1504 1502 1503 1504 1505 1507 1508 1508 1511 1512 1516 1522 1520 1525 1524 1528 1529 1530 1532 1533 1532 1532 1529 1529 1531 1522 1506 1496 1492 1492 1492 1491 1493 1495 1497
1497 1498 1499 1500 1502 1504 1503 1505 1507 1506 1505 1499 1498 1500 1501 1506 1505 1506 1509 1508 1514 1522 1523 1522 1526 1527 1528 1532 1531 1533 1531 1531 1533 1531 1530 1528 1502 1495 1493 1493 1492 1491 1492 1494 1496
1493 1495 1496 1498 1503 1499 1501 1504 1505 1506 1519 1497 1497 1496 1498 1502 1504 1505 1506 1507 1513 1521 1525 1526 1527 1527 1528 1530 1533 1530 1535 1535 1534 1532 1526 1532 1516 1499 1496 1494 1492 1491 1491 1493 1494
1487 1489 1494 1496 1496 1498 1499 1501 1504 1506 1540 1494 1494 1495 1496 1499 1502 1504 1505 1505 1513 1521 1525 1524 1527 1528 1528 1530 1534 1533 1537 1537 1536 1535 1537 1530 1533 1501 1499 1490 1491 1491 1490 1490 1491
1482 1483 1487 1491 1493 1495 1497 1500 1505 1522 1526 1494 1491 1493 1497 1497 1501 1504 1504 1506 1512 1519 1524 1529 1528 1528 1530 1533 1534 1537 1537 1539 1541 1540 1548 1532 1533 1504 1496 1490 1492 1491 1490 1488 1489
1478 1480 1481 1485 1488 1493 1497 1501 1516 1526 1492 1493 1491 1490 1493 1498 1501 1501 1504 1506 1512 1528 1532 1529 1530 1530 1530 1532 1536 1536 1537 1548 1537 1545 1533 1539 1539 1499 1488 1488 1489 1490 1488 1487 1487
1472 1475 1475 1479 1483 1489 1495 1503 1516 1496 1487 1483 1485 1489 1490 1492 1498 1500 1503 1505 1504 1506 1532 1523 1526 1530 1532 1531 1530 1534 1534 1543 1543 1541 1536 1539 1522 1491 1487 1485 1485 1487 1486 1485 1485
1465 1467 1470 1472 1477 1484 1492 1504 1485 1481 1472 1478 1484 1488 1490 1490 1492 1495 1499 1500 1493 1496 1502 1521 1526 1531 1532 1533 1533 1533 1538 1537 1561 1588 1557 1524 1509 1487 1483 1482 1481 1483 1484 1484 1484
1461 1460 1462 1468 1473 1478 1492 1481 1476 1467 1468 1470 1470 1475 1486 1487 1488 1494 1496 1481 1481 1484 1489 1498 1523 1534 1534 1534 1533 1532 1534 1538 1550 1537 1540 1529 1520 1496 1479 1478 1477 1479 1482 1482 1482
1458 1455 1452 1459 1469 1474 1477 1472 1467 1462 1464 1467 1469 1474 1472 1477 1478 1485 1481 1475 1475 1484 1487 1495 1502 1536 1534 1533 1529 1537 1539 1536 1537 1544 1547 1554 1506 1488 1480 1477 1476 1477 1480 1480 1479
1453 1453 1450 1450 1465 1469 1461 1461 1460 1458 1461 1462 1463 1464 1466 1470 1473 1477 1474 1476 1469 1475 1485 1487 1503 1530 1527 1529 1529 1528 1522 1524 1531 1544 1564 1555 1515 1480 1479 1477 1477 1476 1477 1478 1477
1449 1449 1449 1448 1446 1455 1456 1456 1458 1457 1457 1458 1459 1458 1460 1463 1466 1468 1470 1474 1471 1473 1477 1481 1499 1526 1523 1529 1529 1527 1521 1520 1525 1534 1550 1537 1505 1477 1477 1476 1473 1473 1473 1474 1473
1447 1448 1447 1444 1441 1442 1449 1451 1454 1452 1453 1453 1453 1454 1459 1463 1461 1470 1473 1475 1474 1474 1473 1475 1493 1483 1487 1486 1501 1523 1518 1518 1518 1539 1530 1521 1493 1479 1477 1476 1470 1470 1469 1468 1468
1442 1439 1437 1437 1440 1440 1441 1438 1446 1446 1447 1450 1452 1449 1451 1465 1468 1470 1474 1476 1475 1474 1475 1476 1483 1500 1507 1501 1491 1496 1509 1514 1514 1504 1503 1489 1498 1468 1471 1470 1465 1465 1464 1463 1463
1435 1437 1437 1436 1434 1438 1439 1433 1432 1438 1439 1442 1446 1444 1446 1448 1447 1464 1467 1469 1464 1474 1476 1477 1488 1494 1503 1509 1504 1499 1504 1508 1510 1514 1505 1504 1485 1465 1460 1462 1461 1459 1460 1458 1457
1429 1431 1431 1428 1429 1432 1427 1425 1428 1435 1431 1429 1433 1440 1442 1440 1442 1450 1457 1456 1459 1464 1473 1478 1490 1485 1499 1516 1506 1501 1484 1494 1495 1490 1482 1490 1457 1456 1457 1458 1457 1453 1455 1452 1451
Wind_Speed
5 5 5 6 5 4 3 4 4 4 4 3 1 3 2 2 3 2 2 2 3 3 5 6 6 6 5 4 3 3 3 1 4 5 2 4 3 4 3 4 6 8 10 8 9
6 4 5 4 5 4 4 5 5 5 5 6 6 4 3 2 2 2 2 2 4 4 6 6 5 6 3 3 2 3 3 5 4 3 2 4 4 3 2 5 8 13 16 13 10
7 6 4 5 5 4 4 5 5 6 6 4 6 8 7 3 4 2 2 2 4 5 5 5 5 4 3 2 2 2 3 2 2 2 1 2 3 4 2 5 16 11 7 8 8
9 8 6 5 5 5 4 6 6 6 6 5 5 6 7 6 2 2 3 3 5 5 6 7 5 3 4 3 2 2 1 2 2 2 2 2 4 5 12 11 5 7 8 10 9
10 9 8 6 7 5 5 6 8 6 5 5 4 2 6 4 4 4 2 3 6 6 6 6 4 3 5 5 2 2 3 2 2 2 4 6 8 8 20 22 18 14 14 11 10
12 11 9 8 8 6 4 5 6 5 5 4 2 2 2 1 3 2 1 3 5 5 6 6 3 4 8 4 2 3 3 2 3 3 4 4 4 3 3 4 5 13 11 11 11
12 12 10 10 9 8 5 4 5 6 5 5 3 4 5 5 3 2 3 4 5 6 5 5 7 2 5 5 3 4 1 3 3 2 2 5 4 7 13 10 7 7 8 11 11
12 12 11 11 10 10 7 5 7 6 5 5 4 3 3 4 6 4 4 6 7 6 6 9 5 5 1 10 4 2 3 2 1 1 2 2 8 3 1 6 9 11 11 12 12
14 12 12 12 11 10 9 7 6 6 5 5 5 5 3 4 7 7 7 7 8 8 8 8 3 4 2 4 3 5 2 2 5 4 3 1 7 5 4 5 14 22 19 18 18
14 13 12 12 11 10 9 7 5 5 5 5 7 3 6 5 9 8 8 10 4 9 6 2 3 3 3 4 3 3 3 3 5 3 2 5 17 14 26 23 29 25 19 12 10
13 13 14 12 11 9 7 4 3 4 10 5 3 2 3 6 9 9 10 9 7 3 3 2 3 3 3 2 1 2 0 3 4 1 4 6 10 19 18 13 17 17 14 9 8
13 13 13 13 12 10 7 4 3 3 5 14 15 9 6 9 5 10 11 7 4 3 2 3 2 3 5 3 2 1 1 4 4 1 2 6 18 8 4 3 3 0 3 3 6
14 13 13 13 12 11 9 7 6 5 3 5 11 9 7 12 4 12 13 9 4 3 3 4 4 4 3 2 2 2 3 2 4 6 1 7 6 5 2 3 2 1 1 2 5
15 15 14 12 10 11 9 7 8 2 4 5 6 6 11 8 3 9 13 5 4 7 4 3 2 3 3 1 2 3 1 1 2 4 3 5 4 4 4 6 0 3 3 5 6
23 17 15 13 7 7 6 9 9 4 2 1 4 6 10 6 11 3 9 5 7 5 3 4 5 3 2 1 1 1 1 1 1 1 2 5 2 7 4 2 1 2 4 4 0
21 22 19 16 17 7 7 12 11 6 8 1 4 5 5 3 3 6 4 6 8 5 5 3 2 2 2 3 2 4 2 3 3 2 3 2 2 5 2 3 2 3 2 2 1
21 22 25 18 16 16 9 14 4 5 3 5 5 6 3 4 3 4 5 5 6 5 2 2 1 1 2 3 1 1 2 3 5 4 3 1 2 8 5 5 4 6 7 1 2
20 21 29 24 18 15 16 3 5 4 6 2 4 5 6 7 3 5 6 5 5 4 3 6 3 4 1 1 3 4 3 4 5 1 5 1 5 4 5 4 7 11 10 5 4
16 20 32 30 24 22 13 4 7 7 7 10 2 5 4 4 5 4 8 6 9 12 7 5 1 2 2 1 2 3 2 2 7 1 3 3 7 8 4 8 9 15 11 7 5
6 28 29 33 28 30 4 13 7 5 5 3 8 5 9 8 7 6 9 5 6 9 2 7 5 1 1 1 2 1 4 3 3 1 3 5 6 5 2 7 4 5 6 4 4
12 7 16 37 34 29 10 11 7 7 7 6 7 5 5 8 8 6 6 3 4 5 3 5 4 2 1 5 7 1 0 3 3 3 4 1 6 6 6 5 6 6 4 5 6
8 3 20 44 12 6 15 9 7 5 11 4 3 3 8 9 8 6 10 5 12 14 10 7 5 4 5 1 1 2 3 4 4 4 1 3 7 2 7 5 5 10 10 8 10
5 1 27 30 10 8 2 9 8 4 6 7 7 6 3 7 4 6 5 3 9 8 9 8 1 3 5 2 3 4 5 3 5 3 6 5 6 2 5 7 9 12 11 18 19
5 2 6 9 7 14 12 10 18 15 5 5 4 4 4 1 4 5 2 2 2 2 1 6 3 6 8 6 6 5 5 6 5 4 4 7 10 7 7 6 12 19 26 19 11
8 4 6 3 7 5 14 11 17 15 15 13 5 8 8 4 3 5 2 2 1 3 1 2 5 3 1 3 2 5 7 11 9 6 6 5 11 11 7 8 19 22 19 18 17
6 5 6 3 10 10 6 11 21 20 10 16 14 12 8 7 7 8 6 4 5 2 4 1 2 3 2 4 3 2 4 9 4 2 9 2 16 9 23 19 18 17 21 21 18
18 12 5 6 4 7 12 17 10 12 18 25 25 7 10 10 12 13 7 7 8 9 7 6 5 2 4 2 3 5 11 12 6 5 7 7 17 5 5 8 14 21 20 22 20
Wind_Direction
301 315 332 333 325 303 295 301 295 304 285 262 184 133 61 25 11 263 262 264 223 173 162 160 160 166 157 129 110 132 65 226 233 178 223 159 179 205 225 228 219 222 238 255 282
284 291 314 327 320 317 300 301 300 292 300 246 225 244 290 307 300 306 284 242 184 170 161 162 156 160 130 116 86 100 129 219 198 191 259 190 200 204 237 235 248 244 244 253 265
275 280 288 306 312 312 307 297 289 290 292 270 248 253 251 269 314 262 304 233 187 171 171 165 171 169 116 114 42 110 202 180 223 215 209 246 269 230 208 260 241 238 235 235 256
275 276 280 286 296 302 298 304 292 282 287 275 270 263 228 229 219 289 288 222 191 191 184 167 176 170 100 123 110 141 136 160 191 201 220 230 283 272 225 243 267 238 258 260 261
273 276 275 277 283 298 302 304 292 274 271 293 290 291 187 207 239 275 258 207 196 182 184 184 202 186 138 129 118 118 173 200 207 224 249 267 254 252 264 271 255 259 260 262 270
276 277 276 279 281 284 290 304 294 257 248 306 263 224 213 241 209 217 229 176 194 186 195 187 198 197 116 100 139 152 159 190 230 230 267 274 256 327 214 6 224 245 259 257 266
268 275 274 276 280 281 283 287 278 265 245 258 270 238 251 250 223 195 173 146 170 180 186 168 151 240 133 97 117 110 338 305 230 222 261 312 264 235 262 256 266 263 265 265 272
259 265 270 275 278 282 282 279 276 267 252 236 237 249 248 233 212 182 147 138 129 130 150 139 130 125 21 114 39 46 62 348 301 336 304 328 273 244 240 231 257 269 267 275 282
259 257 265 267 275 280 282 281 273 267 250 241 230 226 257 208 191 182 166 145 134 134 139 125 134 87 101 79 11 11 267 261 318 25 307 193 273 263 223 235 282 291 273 285 281
258 258 258 263 271 276 284 292 267 255 246 234 224 233 221 197 179 177 170 154 141 140 137 130 102 83 39 75 238 263 274 252 257 318 313 256 265 267 274 275 276 277 276 270 293
262 256 257 257 262 267 274 278 254 241 230 223 211 169 157 177 173 177 171 155 141 163 128 34 88 192 169 131 111 101 180 273 265 6 310 258 276 283 291 276 271 268 257 262 261
263 260 258 254 252 257 252 220 249 292 295 242 238 230 214 185 162 177 173 156 154 177 107 34 185 137 113 100 106 128 273 287 281 52 332 317 294 288 311 310 308 276 185 218 241
261 259 258 253 252 249 243 232 245 330 266 249 219 214 195 197 206 179 176 152 115 133 198 168 157 130 109 90 147 222 218 241 238 323 271 305 295 351 10 336 324 53 154 227 251
247 255 252 248 254 239 238 231 224 254 49 245 205 198 179 170 194 178 173 147 79 168 154 100 142 131 109 184 128 266 146 123 339 18 287 3 278 322 338 314 305 11 292 261 259
251 237 242 230 210 207 199 194 179 156 4 217 157 167 163 165 137 157 165 133 138 143 149 209 136 141 135 118 116 283 32 34 14 95 345 355 68 270 346 325 108 21 55 64 187
288 222 224 225 217 191 178 161 152 51 250 194 131 158 127 137 131 129 137 118 111 102 36 85 78 65 89 85 82 143 86 40 45 53 31 325 97 287 228 211 290 257 16 90 196
269 242 226 213 224 200 170 157 60 173 326 214 183 162 156 145 138 166 162 155 150 107 207 1 43 75 121 104 35 143 65 335 352 8 221 37 8 248 250 229 211 272 283 246 234
243 272 223 214 202 199 176 61 189 219 193 122 118 103 177 157 189 156 136 191 234 115 116 148 278 169 81 181 196 190 181 155 216 266 277 86 236 246 217 257 260 265 265 257 236
244 235 238 207 189 191 169 197 213 202 167 147 91 115 220 213 145 157 195 203 198 176 152 136 4 337 56 8 102 190 195 131 103 41 35 259 282 292 258 272 256 257 263 269 246
250 220 228 212 183 180 124 231 212 203 139 158 180 162 175 182 157 192 178 201 200 184 163 197 92 319 22 158 43 223 143 75 5 89 294 290 284 244 235 223 247 262 263 289 278
279 243 214 209 176 164 198 219 230 230 177 164 201 144 189 175 174 195 198 255 153 144 119 144 101 271 41 203 180 140 355 56 117 118 174 267 271 213 227 217 227 263 288 310 304
260 244 186 184 151 207 207 189 217 205 204 239 158 157 181 172 171 208 205 272 157 148 166 198 118 136 203 249 320 282 204 170 126 242 56 140 275 267 248 265 271 280 292 307 312
232 321 180 179 177 203 223 205 236 196 189 191 214 204 179 172 178 197 190 342 159 163 160 189 230 87 1 4 7 225 197 169 106 91 203 140 259 252 278 268 251 270 300 310 311
193 176 206 215 228 197 194 207 219 222 257 215 188 140 121 117 40 174 152 11 226 221 273 133 108 156 183 185 129 175 191 180 139 129 183 225 269 273 278 283 283 283 301 306 314
214 228 192 208 240 238 206 196 207 217 204 194 239 210 167 148 97 157 135 135 58 213 26 144 179 111 7 337 183 147 166 177 193 185 177 245 221 255 229 231 268 292 293 299 307
209 182 195 234 204 210 220 221 213 211 177 206 231 201 193 158 167 190 146 204 189 126 171 46 216 114 24 354 31 142 166 197 244 286 285 310 275 231 264 272 270 282 289 290 300
220 232 194 197 180 185 214 229 240 216 224 226 219 186 200 197 142 135 128 132 153 154 169 151 144 123 235 350 54 325 217 183 188 216 187 212 244 212 241 235 269 292 290 298 306